Theta_e
307 308 308 308 309 309 309 308 309 308 309 309 309 310 309 309 309 308 309 308 308 310 309 309 308 310 311 312 312 312 312 312 313 313 312 313 311 311 310 309 308 309 308 307 306 305 304 302 301 301 299 292
306 306 307 306 306 307 307 307 307 306 306 307 306 307 307 307 306 307 306 307 306 307 307 307 307 308 310 311 310 310 311 311 312 311 311 311 310 310 309 308 307 306 307 306 305 304 302 301 300 300 298 290
300 305 304 305 304 305 305 305 305 304 304 304 304 305 305 305 305 305 304 305 304 305 305 306 305 307 308 310 309 309 309 309 310 310 310 309 309 308 308 307 306 305 305 305 304 303 302 300 299 299 295 290
297 304 304 304 303 303 303 303 304 303 302 301 302 303 303 303 300 300 298 303 301 303 304 304 303 305 306 308 308 307 307 307 308 308 308 308 307 306 306 305 304 304 303 303 304 302 301 299 298 291 289 289
297 302 302 303 306 303 302 302 303 302 301 299 299 300 300 298 294 293 294 294 297 301 300 302 303 303 304 306 306 306 304 305 306 306 306 306 306 304 304 303 302 302 303 303 302 301 300 299 291 290 289 289
297 297 299 293 294 298 298 302 302 297 295 298 291 297 294 293 294 292 293 294 300 296 299 298 302 302 302 303 304 304 302 303 303 304 304 304 304 302 302 302 293 294 298 300 301 300 299 291 289 289 289 288
297 294 292 292 293 295 298 297 296 293 293 290 290 291 291 293 291 292 292 294 298 298 299 298 300 300 300 301 301 301 300 300 301 301 301 302 302 300 300 293 291 291 291 290 299 298 292 288 289 288 288 287
292 292 291 291 291 291 291 291 292 291 291 290 289 290 291 291 292 291 290 296 296 296 291 292 296 298 297 297 297 298 295 297 297 298 298 298 299 296 294 290 290 290 290 290 290 289 289 288 288 287 287 286
292 291 290 290 290 290 290 290 290 290 290 290 289 289 291 291 291 289 289 289 289 289 289 289 290 290 290 290 289 295 288 289 290 290 288 289 291 289 290 289 290 290 290 291 290 290 288 288 287 286 287 286
295 292 290 290 291 290 289 291 289 289 289 289 288 289 290 292 290 288 288 288 288 289 288 289 289 289 289 288 289 291 288 288 289 288 288 288 288 288 288 289 289 289 290 289 289 289 289 288 287 285 285 285
292 290 290 290 292 289 289 290 288 288 288 289 288 288 290 290 289 287 287 287 287 287 288 288 288 288 288 288 288 289 287 288 288 287 287 287 287 287 288 288 288 289 289 289 289 289 289 288 288 286 286 285
291 291 290 293 294 288 294 290 289 287 289 289 288 290 288 291 287 286 286 286 286 287 287 287 288 288 288 287 287 288 288 287 287 287 287 287 287 287 287 287 288 288 289 289 288 288 288 288 288 286 285 284
291 290 290 290 290 289 297 287 288 288 288 286 288 288 288 290 287 286 286 285 286 285 286 286 287 287 287 287 286 287 286 286 287 287 287 286 286 286 286 287 287 288 288 288 288 288 288 288 287 286 285 284
291 290 290 290 290 288 292 287 287 289 286 285 286 287 287 288 288 287 285 284 285 285 285 286 286 287 286 286 286 286 285 286 286 286 286 286 286 286 286 286 287 288 286 287 287 286 287 286 287 286 285 284
291 291 290 290 289 288 288 288 289 287 286 285 285 287 287 287 288 288 285 285 284 284 285 285 285 285 285 285 285 286 285 286 287 286 285 286 285 285 285 285 286 286 286 286 286 286 286 286 286 286 286 285
291 291 290 291 289 288 288 288 288 287 285 288 284 286 285 286 285 289 284 285 284 285 284 284 284 284 285 285 285 286 285 285 286 286 286 286 286 286 285 285 285 285 285 285 286 286 286 286 285 285 285 285
291 290 290 290 290 289 290 289 287 286 284 285 284 285 285 285 286 287 285 284 284 286 283 283 283 284 285 284 285 285 285 285 285 285 284 284 285 284 285 284 284 285 285 284 285 285 286 285 285 285 285 285
290 290 289 290 288 289 289 287 286 287 285 285 286 285 285 285 286 285 284 283 284 283 283 283 283 283 284 284 284 284 284 283 284 284 283 284 283 285 283 282 283 283 283 284 284 285 285 285 285 284 284 284
291 290 290 289 288 287 287 288 286 285 285 284 285 285 284 285 286 285 284 284 283 283 283 282 282 283 283 284 284 283 283 283 283 282 283 283 282 282 282 282 283 282 282 283 283 284 285 285 285 284 284 283
291 292 290 290 292 287 286 288 287 286 286 286 284 285 285 284 285 284 283 283 283 283 282 282 282 282 282 283 283 283 282 283 282 282 283 282 282 281 282 282 281 282 281 282 283 284 285 285 285 284 283 283
290 290 290 290 290 290 287 287 288 288 287 286 285 283 284 284 285 283 283 283 282 283 282 281 282 282 282 282 282 282 282 281 283 281 283 282 283 282 280 280 280 281 281 282 283 283 284 284 284 283 283 283
291 291 291 289 289 290 289 288 288 288 287 287 285 284 284 284 285 285 282 282 282 281 281 281 282 281 281 281 281 281 281 281 280 280 280 281 281 282 280 279 279 280 281 282 282 283 283 283 283 283 283 282
291 290 290 288 288 288 288 289 288 287 287 286 286 284 285 284 285 285 282 282 282 281 281 281 280 280 280 281 280 280 280 280 280 280 279 279 280 281 280 279 280 280 280 281 281 281 282 282 282 282 282 282
289 288 289 290 288 287 288 289 288 288 288 288 286 286 284 284 284 283 283 282 282 281 282 280 280 279 280 279 279 279 279 279 279 279 279 279 280 279 280 280 280 279 279 279 280 281 282 282 282 281 282 281
289 288 287 286 287 288 289 289 289 288 288 287 287 286 284 284 284 283 283 283 281 282 283 282 279 279 279 279 279 279 280 279 278 279 279 279 279 279 278 278 279 279 279 278 278 279 280 280 282 282 283 282
289 289 288 287 288 287 287 287 287 288 287 288 288 286 285 284 283 283 282 283 282 282 281 280 279 280 279 279 279 279 279 279 281 279 277 278 277 279 278 277 278 279 278 277 276 276 277 278 279 281 281 281
290 289 289 289 287 286 285 284 286 286 286 287 287 286 285 284 283 283 282 282 283 282 281 281 280 280 279 279 279 279 278 278 277 277 277 277 277 276 277 278 279 278 279 274 276 277 275 275 276 280 279 279
291 290 290 288 288 285 287 287 285 284 283 282 283 285 284 284 283 283 283 282 282 283 282 281 281 280 279 279 279 279 278 277 277 277 276 276 277 277 273 275 275 279 277 275 274 273 272 274 273 274 274 275
291 288 286 285 286 285 285 285 284 284 286 285 286 284 283 284 283 283 283 282 282 282 281 280 280 279 279 279 278 278 278 277 277 276 276 276 276 276 274 272 272 275 277 276 278 275 271 271 270 272 274 275
290 289 289 287 287 286 286 285 283 285 286 286 285 285 286 284 283 283 283 282 281 281 282 280 279 278 277 275 276 275 276 275 276 276 276 276 276 276 276 274 272 272 275 277 276 276 276 276 274 273 273 275
289 289 288 288 288 288 287 286 286 285 286 286 286 285 285 285 283 282 282 282 281 280 281 280 279 278 276 275 274 274 274 274 274 275 274 274 275 275 277 275 272 273 272 273 275 274 275 275 275 274 272 271
Wind_Speed
9 10 10 10 11 10 11 10 10 10 11 12 12 12 12 13 13 13 13 14 14 14 14 14 14 15 15 16 17 18 18 18 18 19 18 18 17 17 17 17 17 16 16 15 15 15 16 16 16 15 11 5
6 6 8 8 9 9 9 9 9 10 11 11 11 11 12 12 13 14 13 13 14 14 13 14 14 15 16 17 18 18 18 18 18 18 18 18 17 16 16 16 17 16 15 15 14 14 15 16 15 14 11 5
2 3 5 6 7 7 7 7 8 10 11 11 11 11 11 12 13 13 14 13 14 14 14 13 14 16 16 17 17 17 17 17 17 17 17 17 17 16 16 16 15 16 16 15 13 14 14 15 14 13 7 4
1 4 4 4 6 6 6 6 7 9 11 11 11 11 11 12 9 9 8 13 9 13 13 14 12 15 15 16 17 17 17 17 17 17 17 17 17 16 16 16 16 15 16 15 14 13 12 13 11 5 5 4
1 1 4 4 4 5 6 6 6 8 9 9 9 9 9 9 6 5 5 6 5 9 6 12 14 14 15 16 16 17 17 17 17 17 17 16 16 16 16 16 16 15 14 15 13 11 10 9 5 4 4 4
2 1 2 3 2 2 3 5 5 4 4 6 5 7 6 4 4 5 4 5 6 5 5 7 14 14 14 15 15 16 17 17 17 16 16 16 16 17 16 17 8 7 10 12 12 9 8 5 4 3 4 4
2 2 2 3 3 2 4 4 2 3 4 4 4 4 4 4 5 4 4 4 6 6 9 8 12 12 13 14 15 15 15 15 16 16 16 16 16 16 15 8 6 6 6 6 9 6 4 3 4 3 3 3
3 2 2 3 3 3 3 3 3 2 4 4 4 4 4 5 4 4 5 6 9 7 5 6 8 11 11 11 11 13 8 10 11 14 12 13 14 9 5 5 6 6 6 6 5 4 3 4 3 3 3 3
1 1 2 2 2 2 2 3 3 3 4 3 4 4 4 4 4 4 5 4 5 5 5 5 5 5 5 5 5 8 5 5 6 7 7 6 7 6 6 6 6 6 6 6 5 5 4 3 3 2 2 2
0 1 2 1 2 2 2 2 2 2 3 3 3 3 3 3 4 4 5 4 4 5 5 5 5 5 5 5 5 5 5 5 6 6 5 6 6 6 5 5 5 5 5 6 6 6 5 4 3 3 3 2
2 2 2 1 0 0 1 1 2 2 3 2 2 3 3 4 4 4 4 4 4 4 4 5 5 5 5 5 5 5 5 5 5 5 5 5 5 5 5 5 5 5 6 5 6 6 6 5 4 4 3 3
3 3 3 1 1 1 0 2 1 1 1 2 2 2 2 1 2 2 3 4 3 4 4 4 5 5 5 4 4 4 4 5 5 5 5 5 5 7 6 7 7 6 7 7 6 6 7 6 6 5 4 3
4 3 3 1 1 0 1 1 0 0 1 2 2 1 2 1 2 2 3 3 3 3 4 4 4 5 4 3 3 4 4 3 5 5 5 6 6 6 7 7 8 7 7 6 6 6 6 6 5 5 4 3
4 4 3 3 2 2 1 1 1 0 1 2 2 1 1 1 0 1 1 2 3 3 4 3 4 3 4 3 3 4 5 5 5 6 6 6 6 6 7 7 7 7 7 6 6 5 5 6 5 5 5 4
4 3 3 4 3 3 4 2 1 0 1 2 3 2 2 1 0 0 0 1 2 3 3 3 3 4 3 2 4 4 5 5 5 5 5 6 6 6 6 6 5 6 7 6 6 5 5 6 6 6 6 5
4 4 4 4 4 4 4 3 3 1 2 3 3 3 3 2 1 1 1 0 1 1 2 3 3 4 3 3 4 4 4 5 5 5 5 4 4 4 5 6 5 5 5 6 6 6 6 6 6 6 6 6
4 4 3 4 5 5 4 5 3 3 3 4 3 3 4 3 3 3 2 1 0 0 1 2 3 4 3 3 3 3 4 4 4 4 4 4 3 4 4 4 5 5 5 5 7 6 6 6 7 6 5 6
4 4 4 4 4 3 5 4 4 4 4 4 4 4 4 4 4 3 3 2 0 0 1 2 3 3 4 4 3 3 3 4 4 4 3 4 4 4 4 6 6 6 8 7 6 5 6 6 6 6 7 6
5 4 4 5 4 4 4 5 5 4 3 4 5 4 4 4 4 4 3 2 1 0 0 1 3 3 4 4 3 3 2 3 4 3 4 3 5 5 4 4 5 4 6 7 9 8 7 8 8 8 8 7
6 5 5 5 5 4 4 5 5 5 5 5 5 5 5 4 4 4 3 3 2 1 2 2 3 4 3 3 3 3 3 2 4 4 3 1 1 5 6 6 7 4 5 6 7 7 7 7 7 8 8 8
5 4 4 5 5 5 4 6 7 5 5 4 5 6 6 5 4 4 4 4 3 3 3 3 4 4 3 3 3 3 3 2 3 3 4 3 1 0 3 5 6 7 6 6 6 7 7 8 7 8 8 8
6 6 5 5 5 4 6 6 6 6 5 6 6 6 7 5 5 4 4 4 4 3 3 3 4 3 3 2 3 3 2 3 2 2 2 5 2 1 2 4 5 6 6 6 7 8 9 9 7 8 8 8
5 5 4 4 4 4 5 5 5 5 5 6 6 6 6 6 6 5 5 4 4 4 3 3 3 3 2 1 2 3 3 3 2 2 2 3 5 3 3 4 3 5 5 7 7 8 9 8 8 8 8 7
5 4 6 6 4 5 6 6 6 5 6 6 6 7 6 6 7 5 5 5 4 4 4 3 3 3 2 2 1 2 3 3 2 3 4 3 3 5 5 3 3 3 4 5 7 9 7 7 9 9 9 7
6 6 4 3 5 7 6 6 5 6 6 6 7 7 7 7 7 5 5 5 5 5 5 4 4 3 3 3 2 3 4 3 3 2 2 2 2 2 4 4 1 3 3 5 4 5 7 8 7 9 7 5
6 6 6 6 7 6 7 6 6 7 6 8 7 7 7 7 6 6 6 6 5 5 6 5 5 5 5 4 4 3 3 3 2 2 1 1 3 0 1 3 3 5 3 3 4 9 9 3 5 8 0 1
7 6 6 6 5 6 5 4 5 6 6 5 7 7 7 7 7 7 6 6 6 6 6 6 6 6 5 4 4 3 4 3 3 2 2 1 2 5 1 3 4 3 0 2 2 5 3 4 8 3 3 2
9 7 7 6 6 5 5 4 1 2 3 3 3 7 7 7 7 7 7 7 6 6 6 7 7 5 5 5 4 4 4 3 3 3 2 1 2 1 3 2 3 0 1 2 2 5 0 4 1 7 1 3
8 5 4 4 1 0 2 2 3 4 7 6 6 4 6 10 7 7 7 7 7 7 7 6 6 5 5 4 3 3 5 4 4 3 2 2 2 3 3 3 2 3 0 1 1 3 2 5 2 4 3 9
7 8 8 6 6 7 6 8 5 8 10 8 8 10 7 5 7 8 7 7 7 7 6 6 6 4 4 4 3 3 4 3 3 3 3 4 4 4 4 3 3 4 2 1 1 3 4 3 5 7 3 4
8 7 7 9 10 9 9 9 8 6 6 7 7 6 7 8 6 8 8 7 7 6 6 5 5 5 4 4 3 3 3 4 5 5 4 3 3 4 3 3 4 5 4 3 5 3 5 4 3 1 2 5
Wind_Direction
45 44 45 45 45 45 44 42 39 38 40 37 30 28 32 33 30 24 18 16 13 9 10 7 9 7 11 14 16 16 16 14 13 13 13 12 13 12 14 15 11 7 11 11 15 16 15 14 12 14 27 6
41 44 44 45 47 46 45 43 41 41 41 36 29 27 31 32 27 21 14 12 11 9 9 9 10 8 12 16 16 16 14 13 12 12 11 10 10 8 8 9 9 6 5 6 11 12 13 13 11 11 18 6
340 43 59 57 51 50 43 41 44 44 42 36 28 27 29 30 23 14 7 9 9 6 6 9 11 9 13 15 15 15 14 12 11 10 9 9 9 5 2 2 1 2 2 358 4 8 12 13 12 9 6 1
2 310 65 72 64 52 43 38 47 49 46 37 28 23 25 24 20 8 358 3 1 3 1 7 13 11 12 14 15 14 13 11 10 9 7 5 7 5 2 359 358 351 357 356 356 4 12 14 11 2 353 352
14 49 68 52 35 43 36 30 47 54 48 42 22 22 19 23 14 7 356 350 351 0 351 3 13 12 11 13 13 14 13 10 8 7 5 2 3 4 0 359 354 345 343 352 350 1 11 14 359 355 357 348
84 41 73 75 38 339 12 13 34 50 55 44 30 18 19 21 14 5 352 345 353 353 350 353 11 12 11 12 13 12 12 9 6 5 2 0 359 0 359 355 351 339 332 340 347 350 0 3 348 352 358 350
88 68 59 57 37 4 4 14 23 46 58 55 38 18 21 20 12 6 355 343 356 357 354 355 7 10 11 11 13 10 9 6 2 3 360 355 355 354 351 349 336 332 325 320 340 337 331 331 337 349 358 343
67 71 48 39 33 18 5 16 16 36 62 61 45 22 23 21 9 7 355 347 353 353 347 346 357 6 8 7 8 6 4 359 353 356 350 346 349 346 338 337 332 332 327 322 328 324 309 318 327 348 342 333
57 89 51 5 8 23 10 19 13 18 57 63 49 26 25 22 15 2 354 345 343 348 347 349 355 357 2 358 0 2 358 354 347 349 344 342 342 339 337 335 331 329 323 316 317 318 297 297 309 324 319 310
167 102 76 18 343 4 3 30 24 11 55 56 53 43 24 24 13 357 351 347 346 345 350 349 350 348 352 360 359 360 354 350 347 342 336 336 330 325 326 319 317 318 314 315 314 320 320 307 317 316 320 334
137 163 169 170 177 94 334 73 51 22 58 73 71 54 35 36 1 348 349 341 335 343 344 347 346 342 348 357 357 349 352 342 336 327 327 329 324 317 322 324 324 325 328 329 325 325 329 323 311 320 322 332
174 187 183 183 153 142 211 102 28 5 88 122 98 78 58 66 38 347 338 328 332 335 348 346 336 335 340 348 347 336 338 337 327 327 329 329 333 338 337 337 333 334 334 331 331 327 327 325 316 311 303 300
190 209 180 175 166 204 210 131 185 216 135 139 137 105 90 75 19 347 335 331 324 332 348 334 336 331 327 333 333 341 334 345 335 335 338 341 337 338 335 334 332 330 328 326 323 324 319 318 315 304 291 283
175 202 161 197 198 202 186 195 207 131 119 197 144 152 130 124 151 271 308 313 320 357 333 328 326 324 323 312 323 351 348 342 345 335 334 336 336 333 331 325 320 324 315 317 312 312 310 307 304 297 285 280
204 194 188 203 201 178 192 213 184 138 166 212 180 185 175 165 152 207 192 324 321 336 323 317 317 310 303 326 343 357 347 336 337 329 321 320 320 324 318 308 305 310 311 309 312 310 308 301 308 307 302 289
210 209 201 212 189 197 212 194 203 218 201 217 209 193 187 182 182 180 193 166 302 310 323 312 310 308 332 335 339 352 342 331 324 320 309 302 295 291 291 299 299 294 300 306 303 309 307 303 302 303 301 295
205 211 220 212 211 212 198 200 191 209 216 223 215 196 197 194 189 183 176 187 185 281 321 312 318 325 320 309 322 337 333 327 318 318 309 296 285 288 295 302 315 317 303 300 308 312 305 306 301 292 291 285
204 216 214 214 226 213 205 208 196 212 211 216 218 205 206 201 198 185 187 162 161 129 6 322 309 300 302 301 310 319 331 329 313 303 303 303 316 325 337 331 327 331 328 321 308 303 304 303 299 303 299 283
213 215 204 205 213 208 199 212 203 215 209 216 229 205 210 205 203 198 182 167 147 170 184 288 287 290 281 297 295 304 306 306 297 283 281 305 336 325 330 325 320 324 311 311 315 315 318 312 312 310 299 292
214 213 211 214 218 211 204 209 214 218 211 213 223 207 208 209 209 198 192 172 156 179 203 228 253 261 280 290 293 284 289 292 295 290 283 256 8 339 327 333 322 319 307 305 307 310 312 307 309 303 300 295
224 225 221 217 219 214 207 213 222 223 220 221 224 219 208 210 209 201 199 191 179 181 210 218 239 259 264 278 278 278 277 276 278 299 313 301 271 170 290 314 313 317 315 311 303 305 300 300 301 296 295 292
215 219 220 221 220 223 220 226 225 227 218 228 225 216 218 209 210 209 205 203 193 190 204 209 221 251 258 270 283 284 275 275 274 281 307 310 293 277 278 296 306 305 307 306 306 303 299 295 292 286 287 287
214 223 233 244 242 245 246 247 241 234 231 229 225 221 220 210 212 214 206 203 199 199 215 221 232 235 254 267 279 278 281 281 286 289 287 297 296 283 253 251 267 279 289 303 300 293 291 288 283 283 279 282
214 213 224 235 265 278 257 248 249 240 229 230 224 228 220 215 215 214 207 205 204 204 212 216 225 230 236 241 236 267 279 272 272 291 313 299 279 304 307 272 245 263 298 289 283 284 277 275 284 279 277 282
200 211 240 253 235 237 239 233 236 243 239 232 229 225 220 218 216 213 211 210 200 211 213 211 213 212 230 215 216 226 242 244 257 245 247 273 275 295 324 309 306 307 304 296 289 225 264 282 266 270 277 280
201 200 192 183 210 210 225 235 238 246 241 232 230 223 221 219 216 211 210 210 204 208 203 215 221 221 226 218 226 229 229 240 246 287 300 301 318 207 291 273 301 306 356 2 20 326 318 229 263 266 196 8
211 211 215 199 218 189 232 235 221 215 228 228 225 224 220 217 215 211 216 211 206 206 212 213 215 225 221 220 220 237 248 245 276 262 271 263 252 304 260 260 271 257 95 239 297 258 297 315 344 330 353 325
220 212 209 216 215 218 199 221 245 257 292 286 255 243 225 227 215 212 217 211 210 212 213 212 218 222 217 228 217 232 256 245 250 242 248 241 239 175 302 330 304 262 91 122 15 342 72 293 35 318 339 323
216 214 219 216 257 10 316 290 276 282 272 242 235 246 232 229 212 216 218 212 212 209 215 215 219 217 225 225 229 226 247 255 248 235 233 230 231 205 222 265 269 308 274 28 252 165 358 331 1 225 287 334
201 204 199 197 210 238 237 253 245 233 233 233 222 224 226 228 213 216 219 215 214 216 214 219 219 218 219 225 228 224 240 258 272 259 248 231 225 238 215 212 252 274 306 275 262 243 214 208 238 307 297 22
200 209 208 206 211 216 219 227 243 232 239 227 235 235 232 226 213 214 213 220 215 216 219 220 218 214 211 212 208 218 218 241 241 245 240 241 228 227 204 181 238 252 271 319 271 225 236 256 282 258 320 264